Weather Roundup
Issued by NWS Springfield, MO

Home | Current Version | Previous Version | Text Only | Print | Product List | Glossary On
Versions: 1 2 3 4 5 6 7 8 9 10 11 12 13 14 15 16 17 18 19 20 21 22 23 24 25 26 27 28 29 30 31 32 33 34 35 36 37 38 39 40 41 42 43 44 45 46 47 48 49 50
295
NZUS99 KSGF 241507
HRRSGF

HOURLY WEATHER
NATIONAL WEATHER SERVICE SPRINGFIELD MO
1000 AM CDT SUN JUL 24 2016

......SGF CWA......

CITY           SKY/WX    TMP DP  RH WIND       PRES   REMARKS
SPRINGFIELD    SUNNY     88  71  57 W9        30.01R HX  94
JOPLIN         CLOUDY    85  74  69 S9        29.99S HX  92
WEST PLAINS    SUNNY     84  72  67 VRB3      30.04S
ROLLA          SUNNY     86  75  69 SW8       29.98S HX  95
OSAGE BEACH    SUNNY     87  76  69 W7        29.99R HX  97
BRANSON        MOSUNNY   86  73  66 W5        30.03S HX  93

......SURROUNDING SGF CWA......

CITY           SKY/WX    TMP DP  RH WIND       PRES   REMARKS
CHANUTE        SUNNY     85  74  69 S10       29.95S HX  92
PARSONS        SUNNY     87  74  64 S9        29.97S HX  95
COFFEYVILLE    SUNNY     87  73  62 S9        29.96S HX  94
EMPORIA        PTSUNNY   85  71  63 SW7       29.94R HX  90
GROVE OK       CLOUDY    86  75  70 SW7       30.00S HX  95
ROGERS AR      SUNNY     87  74  64 W7        30.04R HX  95
SILOAM SPRINGS SUNNY     86  68  54 SW9       30.04R
HARRISON AR    SUNNY     87  74  64 NW6       30.03R HX  95
NEAR YELLVILLE MOSUNNY   82  73  74 CALM      29.98S

......KANSAS AND MISSOURI......

CITY           SKY/WX    TMP DP  RH WIND       PRES   REMARKS
KANSAS CTY INT MOSUNNY   87  73  62 CALM      29.94R HX  94
DOWNTOWN KC    SUNNY     88  72  58 W8        29.92R HX  94
COLUMBIA       SUNNY     89  77  67 SW10      29.96S HX 101
SEDALIA        CLOUDY    84  75  74 SW7       29.96R HX  92
ST JOSEPH      PTSUNNY   84  74  71 SW3       29.92R HX  91
ST LOUIS       MOSUNNY   90  75  61 S9        29.97R HX 100
SPIRIT OF STL  SUNNY     89  77  67 S6        29.94S HX 101
KIRKSVILLE     CLOUDY    89  75  63 W12       29.92R HX  99
WICHITA        MOSUNNY   91  69  48 S10       29.94F HX  96
TOPEKA         MOSUNNY   90  73  57 CALM      29.91S HX  98
OLATHE         SUNNY     87  71  58 W9        29.94R HX  93

......TENNESSEE......

CITY           SKY/WX    TMP DP  RH WIND       PRES   REMARKS
MEMPHIS        CLOUDY    82  74  76 S9        30.00S
NASHVILLE      MOSUNNY   87  71  58 W5        30.04S HX  93

......ARKANSAS.......

CITY           SKY/WX    TMP DP  RH WIND       PRES   REMARKS
FAYETTEVILLE   SUNNY     86  74  67 W7        30.02S HX  94
FT SMITH       SUNNY     87  71  58 CALM      29.98S HX  93
LITTLE ROCK    PTSUNNY   87  73  62 SW5       29.98S HX  94

......OKLAHOMA.......

CITY           SKY/WX    TMP DP  RH WIND       PRES   REMARKS
TULSA          CLOUDY    86  73  65 VRB6      29.96R HX  93
PONCA CITY     SUNNY     88  71  57 S7G26     29.95S HX  94
MCALESTER      SUNNY     86  73  65 S7        30.00R HX  93
OKLAHOMA CITY  MOSUNNY   89  70  53 S13       29.99R HX  94

......IOWA............

CITY           SKY/WX    TMP DP  RH WIND       PRES   REMARKS
DES MOINES     CLOUDY    84  77  79 N10       29.89R HX  94
QUAD CITIES    SUNNY     89  78  70 SW9       29.85S HX 103

......ILLINOIS........

CITY           SKY/WX    TMP DP  RH WIND       PRES   REMARKS
QUINCY         SUNNY     88  77  69 SW12      29.91F HX 100
CHICAGO        PTSUNNY   81  74  79 S16       29.90F




USA.gov is the U.S. government's official web portal to all federal, state and local government web resources and services.